Date,TemperatureHighF,TemperatureAvgF,TemperatureLowF,DewpointHighF,DewpointAvgF,DewpointLowF,HumidityHigh,HumidityAvg,HumidityLow,PressureMaxIn,PressureMinIn,WindSpeedMaxMPH,WindSpeedAvgMPH,GustSpeedMaxMPH,PrecipitationSumIn
2013-5-1,42.4,33.5,23.9,34.3,26.9,18.7,93,77,53,30.87,30.14,8,1,11,0.09
2013-5-2,49.8,35.0,18.9,22.3,18.8,13.8,83,55,29,30.99,30.44,7,1,9,0.16
2013-5-3,63.9,45.5,25.9,28.9,23.8,19.8,79,47,24,30.61,29.93,9,1,13,0.00
2013-5-4,64.0,49.2,34.2,33.6,25.9,19.8,67,42,26,30.30,29.96,11,2,12,0.00
2013-5-5,61.2,48.6,36.9,31.5,25.1,18.9,55,41,27,30.31,29.97,8,2,10,0.00
2013-5-6,69.6,53.4,38.1,35.1,30.3,26.8,70,44,26,30.17,29.75,7,1,15,0.00
2013-5-7,75.2,57.0,43.5,43.9,35.5,29.3,82,48,22,30.04,29.63,8,1,10,0.05
2013-5-8,64.2,49.4,41.2,45.1,40.4,35.6,92,73,36,30.13,29.81,9,2,13,0.33
2013-5-9,63.5,50.6,41.2,44.6,40.8,35.4,93,71,40,30.29,30.00,12,2,15,0.08
2013-5-10,68.4,49.3,36.9,41.5,36.6,33.1,88,66,30,30.31,30.02,10,1,13,0.00
2013-5-11,71.8,59.1,42.1,43.7,37.3,33.1,73,46,27,30.50,30.06,8,1,18,0.04
2013-5-12,81.7,63.6,46.6,39.2,34.9,30.4,67,38,19,30.26,29.81,6,1,13,0.00
2013-5-13,88.5,69.9,50.9,42.6,36.3,31.5,51,32,18,30.14,29.69,13,1,15,0.00
2013-5-14,88.5,68.6,53.2,44.1,36.2,31.8,50,32,16,30.01,29.60,15,2,15,0.00
2013-5-15,85.1,64.9,53.8,50.9,40.6,32.7,77,45,19,29.96,29.56,10,1,16,0.30
2013-5-16,85.3,65.7,49.3,49.3,41.6,32.2,84,48,19,29.93,29.47,7,1,11,0.00
2013-5-17,91.0,69.2,48.6,44.2,33.2,16.7,72,34,7,29.92,29.33,15,1,15,0.00
2013-5-18,82.4,64.5,50.4,40.5,31.6,22.1,46,30,15,29.88,29.45,9,1,16,0.00
2013-5-19,73.6,59.9,47.8,35.6,31.5,25.0,62,37,21,29.89,29.54,10,2,15,0.00
2013-5-20,71.6,55.7,46.9,47.8,39.1,31.5,82,55,31,30.02,29.66,10,1,12,0.00
2013-5-21,74.8,57.5,40.6,41.4,33.5,25.2,85,46,21,30.12,29.63,17,2,17,0.00
2013-5-22,80.6,60.7,43.7,50.7,36.7,28.6,80,45,20,30.05,29.57,10,2,15,0.08
2013-5-23,75.4,60.2,48.0,48.4,44.5,40.5,86,60,32,30.14,29.70,11,1,11,0.00
2013-5-24,87.1,66.4,45.9,52.2,41.3,30.6,91,49,16,30.02,29.54,9,1,13,0.00
2013-5-25,91.4,71.1,50.4,49.8,36.4,16.9,72,36,7,30.00,29.45,7,1,11,0.00
2013-5-26,84.0,66.6,53.4,43.7,33.0,28.2,46,30,14,29.90,29.57,6,1,12,0.00
2013-5-27,82.6,66.8,49.5,39.0,28.5,21.6,45,27,11,29.87,29.44,7,1,12,0.00
2013-5-28,86.0,65.7,48.0,47.1,35.5,25.7,59,35,13,29.83,29.23,13,1,14,0.00
2013-5-29,71.1,58.7,50.2,53.6,41.7,28.4,89,56,29,29.69,29.39,12,2,14,0.37
2013-5-30,72.5,60.8,52.9,31.1,28.2,24.4,41,30,19,29.85,29.49,18,5,23,0.00
2013-5-31,75.0,62.3,48.6,26.2,19.2,12.2,32,20,11,30.00,29.63,15,4,25,0.00